TimeAST,TemperatureF,Dew PointF,Humidity,Sea Level PressureIn,VisibilityMPH,Wind Direction,Wind SpeedMPH,Gust SpeedMPH,PrecipitationIn,Events,Conditions,WindDirDegrees,DateUTC
12:00 AM,78.8,69.8,74,29.95,-9999.0,East,16.1,-,N/A,,Unknown,90,2013-02-16 04:00:00
1:00 AM,78.8,69.8,74,29.95,-9999.0,East,17.3,-,N/A,,Unknown,100,2013-02-16 05:00:00
3:00 AM,77.0,69.8,78,29.89,-9999.0,East,18.4,-,N/A,,Unknown,100,2013-02-16 07:00:00
4:00 AM,77.0,69.8,78,29.89,-9999.0,East,18.4,-,N/A,,Unknown,100,2013-02-16 08:00:00
5:00 AM,78,70,69,,,East,17.3,,,,Clear,100,2013-02-16 09:00:00
5:00 AM,78.8,69.8,74,29.89,-9999.0,East,17.3,-,N/A,,Unknown,100,2013-02-16 09:00:00
6:00 AM,77.0,69.8,78,29.92,-9999.0,East,17.3,-,N/A,,Unknown,100,2013-02-16 10:00:00
7:00 AM,77.0,69.8,78,29.95,-9999.0,East,16.1,-,N/A,,Unknown,100,2013-02-16 11:00:00
8:00 AM,80,69,63,,,East,19.6,,,,Clear,100,2013-02-16 12:00:00
8:00 AM,80.6,69.8,70,29.95,-9999.0,East,19.6,-,N/A,,Unknown,100,2013-02-16 12:00:00
9:00 AM,82.4,69.8,66,29.95,6.2,East,20.7,-,N/A,,Scattered Clouds,100,2013-02-16 13:00:00
10:00 AM,82.4,71.6,70,29.98,6.2,East,23.0,-,N/A,,Scattered Clouds,100,2013-02-16 14:00:00
11:00 AM,83,71,59,,6,East,20.7,,,,Clear,100,2013-02-16 15:00:00
11:00 AM,84.2,71.6,66,29.98,-9999.0,East,20.7,-,N/A,,Unknown,100,2013-02-16 15:00:00
12:00 PM,84.2,69.8,62,29.98,-9999.0,ESE,23.0,-,N/A,,Unknown,110,2013-02-16 16:00:00
1:00 PM,84.2,71.6,66,29.95,-9999.0,East,20.7,-,N/A,,Unknown,100,2013-02-16 17:00:00
2:00 PM,84,71,56,,6,ESE,20.7,,,,Clear,110,2013-02-16 18:00:00
2:00 PM,84.2,71.6,66,29.92,6.2,ESE,20.7,-,N/A,,Scattered Clouds,110,2013-02-16 18:00:00
3:00 PM,84.2,71.6,66,29.89,6.2,ESE,21.9,-,N/A,,Scattered Clouds,110,2013-02-16 19:00:00
4:00 PM,82.4,71.6,70,29.86,6.2,ESE,19.6,-,N/A,,Scattered Clouds,110,2013-02-16 20:00:00
5:00 PM,82.4,71.6,70,29.86,6.2,ESE,19.6,-,N/A,,Partly Cloudy,110,2013-02-16 21:00:00
6:00 PM,82.4,71.6,70,29.86,6.2,East,21.9,-,N/A,,Partly Cloudy,100,2013-02-16 22:00:00
7:00 PM,78.8,71.6,78,29.86,6.2,East,15.0,-,N/A,,Partly Cloudy,80,2013-02-16 23:00:00
8:00 PM,79,70,68,,6,East,15.0,,,,Clear,90,2013-02-17 00:00:00
8:00 PM,78.8,69.8,74,29.89,6.2,East,15.0,-,N/A,,Partly Cloudy,90,2013-02-17 00:00:00
9:00 PM,78.8,71.6,78,29.92,6.2,East,16.1,-,N/A,,Partly Cloudy,90,2013-02-17 01:00:00
10:00 PM,78.8,71.6,78,29.92,6.2,East,17.3,-,N/A,,Partly Cloudy,90,2013-02-17 02:00:00
11:00 PM,78,70,70,,6,East,16.1,,,,Clear,90,2013-02-17 03:00:00
11:00 PM,78.8,69.8,74,29.92,-9999.0,East,16.1,-,N/A,,Unknown,90,2013-02-17 03:00:00